Probability
1 2 3 2 1 0 0 0 1 2 4 7 9 10 10 10 9 6 4 2 1 0 0 0 0 0 0 0 0 0 0 0 0 0 0 1 1 0 0 0 0 0 0
2 2 2 1 0 0 0 0 0 1 2 5 8 9 10 10 9 7 5 2 1 0 0 0 0 0 0 0 0 0 0 0 0 0 0 1 2 1 0 0 0 0 0
2 2 1 0 0 0 0 0 0 0 0 2 5 8 9 9 9 9 6 2 0 0 0 0 0 0 0 0 0 0 0 0 0 0 0 1 1 1 0 0 0 0 0
1 1 0 0 0 0 0 0 0 0 0 1 2 5 7 8 8 9 7 3 0 0 0 0 0 0 0 0 0 0 0 0 0 0 0 0 0 0 0 0 0 0 0
0 0 0 0 0 0 0 0 0 0 0 0 1 2 3 5 7 8 8 5 1 0 0 0 0 0 0 0 0 0 0 0 0 0 0 0 0 0 0 0 0 0 0
0 0 0 0 0 0 0 0 0 0 0 0 0 0 1 2 4 6 7 5 2 0 0 0 0 0 0 0 0 0 0 0 0 0 0 0 0 0 0 0 0 0 0
0 0 0 0 0 0 0 0 0 0 0 0 0 0 0 0 2 4 5 4 2 0 0 0 0 0 0 0 0 0 0 0 0 0 0 0 0 0 0 0 0 0 0
0 0 0 0 0 0 0 0 0 0 0 0 0 0 0 0 0 2 3 3 2 1 0 0 0 0 0 0 0 0 0 0 0 0 0 0 0 0 0 0 0 0 0
0 0 0 0 0 0 0 0 0 0 0 0 0 0 0 0 0 1 2 3 2 1 0 0 0 0 0 0 0 0 0 0 0 0 0 0 0 0 0 0 0 0 0
0 0 0 0 0 0 0 0 0 0 0 0 0 0 0 0 0 0 1 2 1 0 0 0 0 0 0 0 0 0 0 0 0 0 0 0 0 0 0 0 0 0 0
0 0 0 0 0 0 0 0 0 0 0 0 0 0 0 0 0 0 0 0 0 0 0 0 0 0 0 0 0 0 0 0 0 0 0 0 0 0 0 0 0 0 0
0 0 0 0 0 0 0 0 0 0 0 0 0 0 0 0 0 0 0 0 0 1 2 2 2 1 0 0 0 0 0 0 0 0 0 0 0 0 0 0 0 0 0
0 0 0 0 0 0 0 0 0 0 0 0 0 0 0 0 0 0 0 0 0 1 2 3 3 2 1 0 0 0 0 0 0 0 0 0 0 0 0 0 0 0 0
0 0 0 0 0 0 0 0 0 0 0 0 0 0 0 0 0 0 0 0 0 1 1 3 3 2 1 0 0 0 0 0 0 0 0 0 0 0 0 0 0 0 0
0 0 0 0 0 0 0 0 0 0 0 0 0 0 0 0 0 0 0 0 0 0 1 2 2 2 1 0 0 0 0 0 0 0 0 0 0 0 0 0 0 0 0
0 0 0 0 0 0 0 0 0 0 0 0 0 0 0 0 0 0 0 0 0 0 0 1 1 1 0 0 0 0 0 0 0 0 0 0 0 0 0 0 0 0 0
0 0 0 0 0 0 0 0 0 0 0 0 0 0 0 0 0 0 0 0 0 0 0 0 0 0 0 0 0 0 0 0 0 0 0 0 0 0 0 0 0 0 0
0 0 0 0 0 0 0 0 0 0 0 0 0 0 0 0 0 0 0 0 0 0 0 0 0 0 0 0 0 0 0 0 0 0 0 0 0 0 0 0 0 0 0
0 0 0 0 0 0 0 0 0 0 0 0 0 0 0 0 0 0 0 0 0 0 0 0 0 0 0 0 0 0 0 0 0 0 0 0 0 0 0 0 0 0 0
0 0 0 0 0 0 0 0 0 0 0 0 0 0 0 0 0 0 0 0 0 0 0 0 0 0 0 0 0 0 0 0 0 0 0 0 0 0 0 0 0 0 0
0 0 0 0 0 0 0 0 0 0 0 0 0 0 0 0 0 0 0 0 0 0 0 0 0 0 0 0 0 0 0 0 0 0 0 0 0 0 0 0 0 0 0
0 0 0 0 0 0 0 0 0 0 0 0 0 0 0 0 0 0 0 0 0 0 0 0 0 0 0 0 0 0 0 0 0 0 0 0 0 0 0 0 0 0 0
0 0 0 0 0 0 0 0 0 0 0 0 0 0 0 0 0 0 0 0 0 0 0 0 0 0 0 0 0 0 0 0 0 0 0 0 0 0 0 0 0 0 0
0 0 0 0 0 0 0 0 0 0 0 0 0 0 0 0 0 0 0 0 0 0 0 0 0 0 0 0 0 0 0 0 0 0 0 0 0 0 0 0 0 0 0
0 0 0 0 0 0 0 0 0 0 0 0 0 0 0 0 0 0 0 0 0 0 0 0 0 0 0 0 0 0 0 0 0 0 0 0 0 0 0 0 0 0 0
0 0 0 0 0 0 0 0 0 0 0 0 0 0 0 0 0 0 0 0 0 0 0 0 0 0 0 0 0 0 0 0 0 0 0 0 0 0 0 0 0 0 0
Wind_Speed
4 3 2 3 3 3 3 2 3 3 2 1 1 1 1 1 1 1 1 1 1 1 1 1 1 2 2 2 2 1 1 0 0 0 1 1 2 2 2 2 2 2 2
4 3 3 3 3 3 3 3 3 3 2 1 2 2 2 2 2 2 1 1 1 1 2 1 1 2 2 2 2 2 1 0 1 1 0 1 2 2 2 2 3 3 2
3 3 3 3 3 3 3 3 4 4 3 2 1 1 1 1 1 2 2 2 2 2 2 2 2 2 3 3 3 3 2 2 2 1 2 2 2 2 2 2 3 3 2
2 3 3 4 4 4 3 3 4 4 3 2 1 1 2 2 3 3 2 2 3 3 2 3 3 3 3 4 4 4 2 4 3 2 1 2 2 2 2 2 2 3 3
2 3 3 3 3 3 3 3 4 4 4 3 2 2 3 3 3 2 3 3 3 3 3 3 4 3 3 4 5 4 3 3 4 3 2 1 1 2 2 3 2 2 3
3 3 3 3 3 4 4 3 4 4 4 3 3 2 3 4 4 3 3 3 3 3 4 4 4 4 3 4 5 6 5 5 4 3 3 2 3 3 2 3 3 3 3
3 3 4 4 4 5 5 4 4 5 5 4 4 3 3 4 5 5 4 4 3 3 4 4 5 4 4 4 5 5 6 6 6 5 4 3 3 2 2 2 3 3 2
4 4 3 3 4 4 4 5 5 6 5 5 5 4 3 3 3 4 4 4 4 5 5 5 6 6 5 5 5 5 6 6 7 7 6 4 4 3 3 3 3 2 3
5 4 4 4 4 4 5 5 5 6 6 6 5 5 4 4 4 4 5 4 4 5 5 5 6 6 6 6 6 5 6 6 7 7 7 5 4 4 3 3 4 4 4
6 5 5 5 4 4 5 5 5 6 6 6 5 5 5 4 4 4 5 5 5 5 5 5 6 6 6 6 6 6 6 7 7 6 7 6 5 4 4 4 4 4 4
6 6 6 5 5 5 5 5 5 6 6 6 6 6 5 5 4 4 5 5 5 5 5 5 5 6 6 6 6 7 7 8 8 7 7 8 6 5 5 4 4 4 4
6 6 6 6 6 6 6 6 6 6 6 6 6 6 6 5 5 5 5 5 5 5 5 5 5 5 5 5 6 7 7 8 8 7 7 7 5 6 5 5 6 5 5
7 6 6 6 6 6 6 6 6 7 7 6 6 6 6 6 5 5 5 5 5 4 4 4 5 6 5 5 6 6 7 8 8 8 8 7 6 6 5 5 5 5 5
7 7 7 7 7 6 7 7 7 7 7 6 6 6 7 6 6 6 5 5 5 4 5 5 5 5 5 6 6 6 6 7 7 7 7 7 7 8 7 6 6 5 5
7 7 7 7 7 7 7 7 7 7 6 6 7 7 7 7 6 6 5 5 5 5 5 5 5 4 4 5 6 6 6 6 7 7 6 6 7 8 7 6 6 6 6
8 7 8 7 8 7 7 7 7 7 6 7 7 7 7 6 6 6 5 5 5 5 5 5 5 5 5 6 8 7 6 5 6 7 6 6 6 7 8 8 8 8 7
8 8 8 7 7 7 7 8 8 7 6 7 7 7 7 7 7 6 6 5 5 5 5 5 5 5 6 8 8 8 5 4 5 5 5 5 4 5 5 6 6 7 8
7 7 7 8 7 7 7 7 7 7 7 7 7 7 7 7 7 6 6 5 5 4 4 5 5 5 6 8 8 7 5 4 4 5 5 5 4 4 5 5 5 5 5
6 6 6 6 7 7 7 7 7 7 7 7 7 7 7 7 7 7 6 5 4 4 4 4 4 4 5 7 8 7 4 4 4 5 4 4 4 5 6 5 5 5 4
5 5 5 6 7 7 6 6 7 7 7 8 8 7 7 7 7 7 6 5 4 4 4 4 4 4 4 7 7 7 4 4 4 4 4 6 5 5 6 5 5 6 5
6 5 5 5 6 7 6 7 7 8 8 7 7 7 7 6 6 6 5 5 4 4 4 4 4 4 5 6 7 7 3 4 4 3 3 3 5 6 6 6 5 6 4
6 6 6 7 7 6 6 7 7 8 7 7 7 7 7 6 5 5 5 4 4 3 3 4 4 3 4 5 6 7 6 4 3 3 3 3 5 5 5 5 4 4 3
6 5 6 7 7 6 5 7 8 8 7 7 7 7 7 6 6 5 5 4 3 2 3 3 3 4 3 3 6 6 6 5 3 2 3 3 4 4 3 4 4 3 2
6 6 6 7 8 8 7 7 7 7 7 7 7 7 6 6 5 4 4 3 3 3 3 3 3 4 3 3 3 2 2 4 3 2 2 2 2 2 2 2 2 1 2
6 6 6 7 9 8 8 7 6 6 6 7 7 6 5 5 5 4 3 4 3 3 4 3 3 3 3 4 5 3 2 2 2 1 1 0 0 0 0 0 1 1 1
6 6 7 8 8 8 8 7 6 5 5 6 6 5 4 4 4 4 4 6 6 7 7 7 6 5 5 6 6 6 5 4 3 1 0 0 1 1 1 1 1 1 1
Wind_Direction
290 312 324 330 334 338 346 338 334 319 322 300 261 252 263 258 255 255 253 258 262 277 282 277 242 193 189 194 182 176 177 191 45 9 325 307 261 232 223 219 206 212 213
313 321 331 344 336 333 336 337 334 324 319 293 251 234 250 252 246 257 257 254 255 257 263 251 244 228 199 190 185 168 174 217 200 160 177 295 291 256 233 216 207 212 204
282 306 322 334 334 330 325 324 326 322 320 324 316 311 299 303 277 267 264 262 251 244 254 248 222 238 210 200 200 188 181 198 235 214 176 182 232 270 262 230 215 206 203
288 306 314 327 323 310 321 331 327 326 330 341 333 264 260 256 262 252 255 262 248 240 243 249 228 226 229 208 208 200 202 188 211 237 238 228 197 206 265 262 230 213 211
280 291 297 308 321 323 321 324 326 331 335 341 315 275 265 259 269 262 255 256 251 244 245 244 232 222 232 221 208 207 208 198 209 214 217 244 268 223 222 248 248 250 230
307 301 324 346 343 349 345 341 330 332 333 334 317 287 274 268 268 268 256 253 251 246 247 249 234 224 228 232 218 208 210 213 213 220 210 204 207 211 221 236 244 251 250
320 327 340 342 340 345 337 336 334 327 328 329 320 298 276 266 256 256 255 255 254 251 248 251 243 233 231 236 232 216 214 215 215 218 221 221 226 215 222 232 243 264 277
322 322 322 321 325 329 328 328 322 320 323 322 313 309 286 272 264 260 256 253 249 248 247 245 245 239 237 238 233 228 221 218 220 227 225 227 228 218 218 216 215 249 270
321 321 327 328 326 320 316 312 317 318 317 313 310 313 301 282 274 269 261 256 259 256 245 243 249 240 235 236 234 231 228 222 222 227 228 228 230 223 223 223 212 207 236
324 326 328 324 317 311 312 316 316 311 310 311 311 307 304 285 277 275 273 269 263 262 252 246 252 246 236 236 233 236 232 225 226 227 228 229 228 223 220 222 226 223 223
319 319 319 318 316 319 319 316 316 313 312 311 308 306 302 295 281 277 274 271 263 259 256 249 253 249 238 236 234 236 236 231 230 230 231 232 230 225 221 220 221 226 222
312 314 315 318 321 321 320 317 313 310 308 307 307 306 307 308 292 283 281 276 269 261 258 252 254 253 242 236 237 239 238 233 230 230 232 234 232 232 227 223 225 226 222
315 317 317 316 315 315 315 313 310 308 310 312 311 313 314 309 302 290 283 279 271 268 267 257 253 250 247 243 240 239 238 236 229 229 231 229 227 233 232 229 228 229 229
310 312 312 312 310 311 313 312 311 313 314 313 312 312 308 302 298 295 291 280 270 267 263 257 256 252 251 251 247 242 242 241 234 233 230 225 224 229 230 231 230 228 225
312 310 310 311 313 314 314 313 312 315 315 314 312 307 305 303 303 302 300 295 283 268 261 258 253 253 251 253 250 241 243 243 241 237 229 229 235 238 233 235 227 221 219
306 308 310 312 311 310 310 310 310 311 313 311 307 306 306 303 302 301 299 297 293 281 267 259 254 255 259 274 273 264 244 245 246 242 235 235 236 245 247 250 245 234 221
306 308 309 307 306 306 304 303 305 308 310 307 306 306 304 304 304 301 301 297 291 287 281 265 255 255 264 273 272 272 257 245 248 248 240 238 242 245 240 248 251 246 244
301 303 307 309 309 307 306 306 306 307 306 305 305 305 305 306 305 302 300 295 285 280 280 281 271 266 273 276 271 268 257 244 246 248 243 239 237 239 240 234 235 234 237
291 292 296 299 305 308 309 309 309 308 307 305 305 306 306 307 307 304 300 295 285 282 279 280 277 276 288 292 282 272 249 247 252 253 249 247 237 255 254 238 234 238 240
301 301 304 306 308 309 311 308 307 307 303 303 304 306 308 306 304 301 300 294 283 280 286 290 286 279 282 295 296 283 254 249 253 254 249 251 253 255 256 238 226 231 237
304 307 308 307 304 309 312 307 305 301 300 305 307 308 309 304 299 299 300 299 292 290 289 291 293 284 284 292 295 295 270 247 248 252 253 250 259 255 260 260 240 237 237
311 313 312 309 310 311 310 306 302 303 308 308 308 309 309 305 306 304 303 300 295 293 290 293 298 292 288 294 292 297 295 286 258 256 257 257 262 261 264 263 261 250 240
308 310 308 309 311 310 306 301 301 308 311 311 309 308 308 307 308 305 303 303 298 287 292 292 297 301 298 297 300 298 298 297 283 272 280 291 279 273 267 272 263 246 215
307 310 312 311 311 313 310 298 300 307 308 308 308 308 307 309 309 303 300 297 297 291 289 291 295 300 301 297 289 275 278 289 283 287 295 305 316 304 305 298 268 238 223
307 309 307 305 307 313 311 305 305 308 308 307 308 308 305 305 307 303 296 293 281 276 279 280 279 288 295 300 308 306 285 269 264 290 324 320 279 312 320 311 319 293 241
307 311 310 310 312 314 314 313 312 310 307 307 309 306 306 307 308 309 311 312 305 308 301 298 294 295 298 303 307 316 320 320 314 309 302 296 289 287 295 306 323 327 288